YAYE Airport Information

Runway Information
Runway 13 Length 8527 ft width 98 ft
Elevation 1612 ft Threshold 0 ft Heading 130
Runway 31 Length 8527 ft Width 98 ft
Elevation 1626 ft Threshold 0 ft Heading 310
Airport Frequencies
Type ATIS Name ATIS Frequency 126.55 MHZ
Type CTAF Name CTAF Frequency 126.9 MHZ
Type FSS Name MELBOURNE Frequency 121.85 MHZ
Airport Navaids
Type NDB-DME Name Ayers Rock Frequency 233 KHZ
Airport Weather Information & NOTAM
ADDS - METARS form results

(1834 UTC 13 July 2020)
Data provider http://aviationweather.gov/metar/data/
 
METAR text: YAYE 131800Z AUTO 12005KT 9999 // NCD 05/M03 Q1023
Conditions at: YAYE (AYERS ROCK , AU) observed 1800 UTC 13 July 2020
Temperature: 5.0°C (41°F)
Dewpoint: -3.0°C (27°F) [RH = 56%]
Pressure (altimeter): 30.21 inches Hg (1023.0 mb)
Winds: from the ESE (120 degrees) at 6 MPH (5 knots; 2.6 m/s)
Visibility: 6 or more miles (10+ km)
Ceiling: at least 12,000 feet AGL
Clouds: sky clear below 12,000 feet AGL
Weather: no significant weather observed at this time